{"data":{"norad_id":62075,"epoch":"2026-05-25T01:46:44.095008Z","epoch_age_seconds":82738,"freshness":"FRESH","line1":"1 62075U 24217U   26145.07412147  .00012597  00000+0  43662-3 0  9997","line2":"2 62075  53.1566 186.4941 0001367  82.3938 277.7218 15.30208094 85291","mean_motion":15.30208094,"eccentricity":0.0001367,"inclination_deg":53.1566,"raan_deg":186.4941,"arg_perigee_deg":82.3938,"mean_anomaly_deg":277.7218,"bstar":0.00043662,"rev_number":8529,"period_min":94.104847938414,"perigee_km":474.25405237656,"apogee_km":476.12775222505,"semimajor_km":6853.3279023008,"source":"CELESTRAK","updated_at":"2026-05-25T13:38:19.556208Z"}}